#timestamp,LO_Frequency,Hit,StdDev 
1513425615.2,286046999.8,N
1513425635.9,286047000.7,N
1513425655.7,286046998.1,N
1513425675.6,286047003.9,N
1513425695.4,286047002.5,N
1513425715.3,286047000.0,N
1513425735.1,286047001.4,N
1513425736.0,286047001.4,N
1513425755.8,286047001.2,N
1513425775.7,286047000.8,N
1513425795.5,286047002.8,N
1513425815.3,286047000.1,N
1513425835.2,286046998.3,N
1513425855.0,286046999.6,N
1513425855.9,286046999.6,N
1513425875.8,286046998.8,N
1513425895.6,286046997.0,N
1513425915.4,286046997.2,N
1513425935.3,286046999.1,N
1513425955.1,286047000.7,N
1513425975.9,286047000.8,N
1513425995.7,286046998.7,N
1513426015.5,286047001.2,N
1513426035.4,286047000.6,N
1513426055.2,286046998.6,N
1513426075.0,286047000.5,N
1513426075.9,286047000.5,N
1513426095.8,286047002.5,N
1513426115.6,286047000.2,N
1513426135.5,286047000.3,N
1513426155.3,286046998.6,N
1513426175.1,286046999.6,N
1513426195.9,286046999.3,N
1513426215.7,286046999.9,N
1513426235.6,286046998.2,N
1513426255.4,286046998.8,N
1513426275.2,286046999.5,N
1513426295.1,286046996.9,N
1513426296.0,286046996.9,N
1513426315.8,286046997.4,N
1513426335.6,286046999.3,N
1513426355.5,286046996.8,N
1513426375.3,286046997.7,N
1513426395.2,286046998.9,N
1513426415.9,286046995.4,Y
1513426435.7,286046997.8,P
1513426455.6,286046996.6,P
1513426475.4,286046996.9,P
1513426495.3,286046996.7,Y
1513426515.1,286047000.2,P
1513426516.0,286047000.2,N
1513426535.8,286047000.6,N
1513426555.7,286047002.4,N
1513426575.5,286047002.1,N
1513426595.4,286047002.1,N
1513426615.2,286047000.9,N
1513426635.0,286047000.7,N
1513426635.9,286047000.7,N
1513426655.8,286047002.7,N
1513426675.6,286047002.1,N
1513426695.4,286047000.1,N
1513426715.3,286047001.2,N
1513426735.1,286047001.1,N
1513426755.9,286047000.8,N
1513426775.7,286047002.3,N
1513426795.5,286047001.9,N
1513426815.4,286047002.2,N
1513426835.2,286047001.5,N
1513426855.1,286047001.6,N
1513426856.0,286047001.6,N
1513426875.8,286047002.3,N
1513426895.6,286047001.0,N
1513426915.5,286046998.5,N
1513426935.3,286046998.1,N
1513426955.1,286046999.0,N
1513426975.9,286046998.4,N
1513426995.7,286046998.9,N
1513427015.6,286047000.0,N
1513427035.4,286047002.6,N
1513427055.2,286047003.9,N
1513427075.1,286047004.0,N
1513427076.0,286047004.0,N
1513427095.8,286047002.2,N
1513427115.6,286047003.8,N
1513427135.5,286047001.9,N
1513427155.3,286047001.3,N
1513427175.2,286047000.1,N
1513427195.9,286046999.9,N
1513427215.7,286047000.5,N
1513427235.6,286046998.6,N
1513427255.4,286047001.2,N
1513427275.3,286047000.3,N
1513427295.1,286047001.2,N
1513427296.0,286047001.2,N
1513427315.8,286047002.2,N
1513427335.7,286046999.7,N
1513427355.5,286047001.5,N
1513427375.3,286047004.3,N
1513427395.2,286047006.0,Y
1513427415.0,286047002.4,P
1513427415.9,286047002.4,P
1513427435.8,286047004.3,P
1513427455.6,286047002.1,N
1513427475.5,286046999.8,N
1513427495.3,286046999.1,N
1513427515.1,286046998.6,N
1513427535.9,286047000.2,N
1513427555.7,286047000.4,N
1513427575.5,286046998.2,N
1513427595.4,286046996.8,N
1513427615.2,286047000.7,N
1513427635.1,286047002.5,N
1513427636.0,286047002.5,N
1513427655.8,286047000.3,N
1513427675.6,286047002.5,N
1513427695.5,286047000.3,N
1513427715.3,286047000.9,N
1513427735.2,286047001.8,N
1513427755.9,286047006.0,Y
1513427775.7,286046999.8,P
1513427795.6,286046998.4,P
1513427815.4,286047002.0,N
1513427835.3,286047002.2,N
1513427855.1,286047001.7,N
1513427856.0,286047001.7,N
1513427875.8,286047002.0,N
1513427895.7,286046998.4,N
1513427915.5,286046997.4,N
1513427935.3,286046999.4,N
1513427955.2,286046996.9,N
1513427975.0,286046993.8,Y
1513427975.9,286046993.8,P
1513427995.8,286046994.5,N
1513428015.6,286046994.3,N
1513428035.4,286046995.5,N
1513428055.3,286046995.4,N
1513428075.1,286046993.6,Y
1513428095.9,286046999.0,P
1513428115.7,286047001.3,N
1513428135.5,286047002.7,N
1513428155.4,286047001.0,N
1513428175.2,286047002.1,N
1513428195.1,286047001.7,N
1513428196.0,286047001.7,N
1513428215.8,286047007.2,Y
1513428235.6,286047005.0,P
1513428255.5,286047006.0,N
1513428275.3,286047001.6,N
1513428295.2,286047001.3,N
1513428315.9,286047001.5,N
1513428335.7,286047003.8,N
1513428355.6,286047004.3,N
1513428375.4,286047002.1,N
1513428395.2,286047001.7,N
1513428415.1,286047001.5,N
1513428416.0,286047001.5,N
1513428435.8,286047003.6,N
1513428455.7,286047005.7,Y
1513428475.5,286047001.8,P
1513428495.3,286047003.7,P
1513428515.2,286047002.3,N
1513428535.0,286047000.0,N
1513428535.9,286047000.0,N
1513428555.8,286047000.3,N
1513428575.6,286047000.3,N
1513428595.4,286047000.2,N
1513428615.3,286047000.8,N
1513428635.1,286046998.6,N
1513428655.9,286046998.3,N
1513428675.7,286047000.8,N
1513428695.5,286047000.5,N
1513428715.4,286047004.4,Y
1513428735.2,286047001.9,P
1513428755.1,286047003.6,P
1513428756.0,286047003.6,P
1513428775.8,286047003.3,N
1513428795.6,286047006.0,Y
1513428815.5,286047000.2,P
1513428835.3,286047002.7,N
1513428855.2,286046999.7,N
1513428875.9,286047000.9,N
1513428895.7,286046999.3,N
1513428915.6,286047000.4,N
1513428935.4,286047002.5,N
1513428955.2,286046999.1,N
1513428975.1,286046997.5,N
1513428976.0,286046997.5,N
1513428995.8,286046999.5,N
1513429015.7,286046999.2,N
1513429035.5,286046998.8,N
1513429055.3,286046999.9,N
1513429075.2,286047002.4,N
1513429095.0,286047001.0,N
1513429095.9,286047001.0,N
1513429115.8,286046998.8,N
1513429135.6,286047000.7,N
1513429155.4,286046996.8,N
1513429175.3,286046995.3,N
1513429195.1,286046998.2,N
